Theta_e
343 342 341 341 341 340 339 337 338 335 337 337 336 336 334 337 335 336 335 332 331 332 330 328 326 330 329 328 327 326 324 322 322 322 320 320 319 319 318 318 318 318 318
344 342 340 341 339 341 339 338 338 338 338 336 336 336 335 335 335 335 334 333 331 331 327 328 329 327 326 326 328 326 324 322 322 321 320 319 318 319 318 318 317 317 317
344 342 341 341 340 338 339 338 338 337 336 336 336 335 334 334 334 334 334 333 331 330 328 328 328 327 327 326 324 323 323 322 322 321 320 319 318 318 317 317 317 317 317
345 343 341 342 341 339 338 338 337 336 336 336 335 335 334 334 334 334 333 333 333 330 329 329 328 328 327 326 325 322 323 322 322 320 320 318 318 318 317 316 316 316 317
343 342 342 341 341 339 339 337 337 336 337 335 335 335 335 335 334 333 333 333 333 332 331 328 328 328 327 327 325 326 325 322 321 320 320 318 317 317 317 316 316 316 316
343 340 342 342 340 340 337 337 337 337 337 336 336 334 334 333 333 333 332 332 332 331 331 332 329 328 327 327 325 325 325 325 322 320 320 319 317 317 317 316 315 315 316
340 339 340 342 341 341 340 338 338 338 338 337 335 334 333 333 332 333 331 331 332 332 331 330 331 329 327 327 325 324 326 325 325 323 320 318 318 317 317 317 316 315 315
340 339 339 338 339 339 339 337 337 339 338 337 335 335 332 334 334 333 333 333 333 332 331 330 330 330 327 327 326 325 324 325 325 324 322 319 318 317 317 317 316 315 315
341 340 338 337 337 337 337 335 335 336 338 336 336 334 332 331 332 333 332 332 332 330 331 331 330 329 329 328 327 324 324 324 325 324 323 321 319 318 317 317 316 315 315
340 340 337 337 336 336 335 336 334 335 335 337 336 335 332 335 332 332 333 332 330 331 329 330 330 329 329 329 327 326 324 323 323 324 324 322 320 319 318 317 316 315 315
340 339 336 337 336 335 335 335 334 335 334 336 336 334 334 334 335 333 330 330 332 331 330 329 330 330 329 328 327 327 325 323 322 322 324 323 321 320 319 317 316 315 315
339 338 335 337 336 334 334 334 334 334 333 335 335 333 332 332 333 333 330 328 329 330 329 328 329 329 329 328 327 327 326 324 322 321 322 323 322 321 319 318 317 316 316
340 337 336 336 336 334 334 333 334 333 333 334 334 333 333 333 334 333 332 329 329 331 329 329 330 330 329 328 328 327 327 326 324 322 321 322 322 322 320 319 318 317 316
339 339 336 335 335 335 334 333 333 334 333 333 333 332 333 333 334 333 332 331 330 328 329 330 329 328 329 329 328 327 327 326 325 323 322 321 321 322 322 320 318 317 318
330 336 336 338 336 335 334 333 333 333 333 333 332 331 331 332 334 333 333 332 329 328 328 330 330 328 327 328 328 327 327 326 326 325 322 322 322 321 321 321 321 319 318
325 318 330 334 334 336 336 334 334 334 333 332 333 333 333 331 333 332 332 332 331 329 330 329 330 328 327 328 327 326 325 325 324 324 323 323 323 322 320 320 321 320 319
312 319 318 322 327 330 332 334 335 334 334 335 335 333 331 328 330 323 325 330 332 331 330 329 329 328 327 327 326 325 324 324 324 324 324 323 322 322 321 320 320 320 318
309 306 309 309 310 315 319 323 324 330 333 334 334 334 332 332 324 323 327 331 331 331 330 329 329 329 327 326 325 325 324 323 323 323 323 323 323 321 320 321 319 318 318
297 300 299 298 299 302 306 309 314 316 321 323 328 330 332 330 328 329 331 330 330 329 329 329 328 328 326 325 325 324 323 323 323 323 323 323 323 322 318 319 320 318 317
292 293 294 293 293 295 299 302 303 305 308 311 314 317 320 319 324 330 330 330 330 329 329 328 328 327 326 325 324 323 322 323 322 322 322 322 322 322 319 319 320 320 318
290 289 289 290 289 290 291 295 296 298 300 302 303 306 306 305 308 312 315 323 328 328 328 327 326 325 323 321 321 321 321 321 320 320 320 321 321 321 320 320 319 319 319
288 288 287 287 287 287 289 291 293 292 293 292 293 296 297 301 305 307 309 314 319 319 326 325 324 322 322 321 321 320 320 314 310 314 314 313 314 314 319 319 319 319 318
287 287 287 287 286 286 289 288 289 288 288 287 287 289 290 292 296 300 303 302 305 304 306 312 315 320 320 321 321 319 319 316 317 316 312 304 304 305 306 308 316 317 317
287 286 286 286 285 285 286 288 289 288 287 286 286 285 286 287 290 295 297 297 297 300 298 298 299 298 300 307 311 318 319 318 314 313 309 296 297 296 297 299 300 304 304
287 287 285 285 285 284 285 285 286 287 287 286 285 285 284 285 285 291 292 291 291 290 291 293 294 295 295 296 298 308 310 309 298 303 304 305 294 291 292 292 293 294 295
286 286 286 285 284 283 283 284 285 285 285 285 285 285 284 284 285 285 287 287 286 286 288 289 290 291 292 292 296 296 298 300 300 295 301 301 291 291 286 288 289 290 290
Wind_Speed
23 26 23 20 22 20 20 19 17 16 16 14 12 11 9 8 5 5 5 12 13 12 13 12 16 20 18 17 18 17 16 14 15 13 11 11 11 13 13 14 13 13 11
25 25 26 22 25 21 21 20 20 18 17 15 14 13 10 9 8 8 7 12 15 13 12 16 19 19 18 18 21 19 18 18 17 16 14 14 13 15 14 14 13 13 13
27 26 25 23 24 25 21 22 19 18 16 14 17 16 13 10 10 8 8 9 18 17 16 16 17 17 18 18 21 21 20 20 19 17 16 16 15 16 16 15 15 14 13
26 26 27 25 24 27 25 24 21 20 18 17 13 17 17 16 16 14 12 11 14 20 22 21 20 18 19 21 19 22 23 21 20 17 18 18 17 18 18 17 16 15 14
34 31 26 29 29 28 26 26 24 23 19 19 17 11 15 15 17 15 15 14 15 17 20 23 23 21 20 23 22 21 22 22 21 21 20 19 19 21 20 20 18 17 16
37 39 29 27 28 28 30 27 25 22 21 23 17 17 13 13 12 17 17 15 16 16 18 20 24 26 24 26 25 23 23 22 23 23 22 20 21 22 22 21 20 19 18
42 39 36 22 25 24 24 27 25 24 21 19 18 13 13 14 15 13 16 18 19 17 16 20 21 26 28 29 28 26 24 23 24 24 24 24 24 25 24 23 21 21 20
42 40 36 32 32 25 25 26 26 21 19 22 13 13 3 8 15 22 22 18 18 17 20 20 23 24 26 31 32 31 27 27 27 26 27 26 25 26 26 25 24 23 22
40 42 39 35 32 33 30 30 31 24 19 24 21 10 3 4 6 18 24 23 20 20 19 17 21 22 27 27 31 33 33 31 31 29 29 28 27 28 26 26 25 24 24
41 41 40 36 33 32 30 29 30 30 23 19 24 27 17 4 2 3 16 22 21 22 21 21 21 24 26 31 30 33 36 35 34 32 31 31 29 31 30 29 28 27 27
40 39 38 37 35 33 33 31 29 30 30 22 23 18 22 19 15 5 3 8 20 21 21 20 22 23 26 28 31 32 34 37 37 36 35 33 31 32 32 31 29 29 27
38 39 40 36 35 32 31 33 30 30 28 27 22 23 16 12 15 8 3 4 9 18 23 24 26 27 26 29 32 34 33 36 37 38 38 37 36 33 33 33 32 31 28
33 36 39 33 33 32 30 29 29 31 30 28 26 21 22 23 19 19 15 6 5 12 19 24 22 23 25 27 33 34 35 35 36 37 39 41 40 38 35 34 34 33 32
25 29 34 36 32 32 30 30 29 29 29 29 24 25 23 24 23 23 19 10 3 4 9 11 24 25 24 27 30 31 34 37 38 40 39 41 43 41 39 37 35 33 35
16 16 16 24 28 31 32 32 31 31 30 31 33 33 32 28 26 26 24 21 10 3 5 16 15 24 25 27 27 28 31 39 41 41 43 42 42 45 43 41 39 36 36
21 16 12 10 14 16 20 26 28 28 31 32 34 30 32 23 28 24 23 22 20 16 6 13 14 18 21 27 27 26 30 35 36 38 45 45 44 44 46 43 42 40 37
26 20 19 16 8 2 10 20 25 28 30 28 30 30 29 22 21 34 29 23 23 19 10 26 22 18 18 21 25 27 28 32 34 36 38 48 47 45 46 47 45 43 41
30 26 23 21 18 15 9 2 3 9 19 24 25 25 21 28 28 31 28 30 28 27 20 19 24 23 23 24 26 26 30 30 33 38 38 40 50 51 46 48 48 45 43
34 28 27 28 25 23 18 13 10 8 5 4 13 20 24 24 24 21 21 23 26 24 25 23 20 23 22 22 23 26 29 33 33 38 40 41 43 52 50 46 48 47 45
39 34 31 30 30 28 25 19 15 13 11 10 11 10 12 14 18 25 27 29 27 25 23 23 22 24 22 21 23 21 19 29 30 33 35 38 40 48 46 43 46 49 47
39 36 38 37 34 33 30 25 21 19 19 17 16 15 14 17 16 10 11 17 22 25 26 21 20 17 14 14 16 19 22 21 26 31 32 35 36 43 46 45 43 46 47
36 35 31 32 34 35 31 30 27 24 24 24 25 22 19 21 22 20 18 16 18 13 14 13 9 11 16 18 20 22 21 9 3 23 25 26 27 32 36 38 39 40 43
30 29 30 30 33 38 32 32 29 29 28 28 29 30 26 26 25 22 18 18 12 8 4 10 8 10 15 21 25 23 23 20 17 18 29 18 20 21 21 23 29 32 35
27 29 32 33 35 39 38 30 26 27 28 30 32 34 31 31 29 24 18 17 14 14 16 11 6 8 10 15 17 22 25 25 21 18 28 8 16 9 13 13 12 17 20
28 30 33 30 29 33 36 36 29 26 26 26 29 29 33 32 31 25 19 18 17 18 14 13 11 10 12 14 14 20 20 16 4 11 29 17 14 14 11 12 11 12 15
26 25 26 30 30 31 36 35 31 27 25 24 25 25 29 31 31 30 26 21 20 19 18 14 13 11 11 12 11 8 6 8 5 3 21 20 18 15 6 11 15 17 17
Wind_Direction
207 199 198 199 193 198 193 193 194 192 205 197 201 204 208 220 218 186 207 189 200 204 204 215 194 193 191 197 202 203 202 203 205 193 189 188 184 181 175 176 169 161 159
203 199 200 202 195 196 197 197 200 194 205 204 197 208 213 223 218 215 205 191 194 196 196 193 189 195 202 205 216 211 203 203 207 206 196 196 193 190 188 180 176 167 166
205 195 200 199 197 201 200 197 199 208 201 210 216 213 207 218 218 199 207 191 192 198 197 202 210 215 212 207 210 207 202 208 208 208 205 200 195 195 193 188 184 181 178
200 195 200 200 194 198 203 199 198 199 205 215 217 213 212 211 210 208 206 195 202 209 205 209 217 219 216 212 209 208 206 208 205 208 210 202 204 201 201 194 193 192 188
206 204 205 204 197 201 200 202 202 205 204 208 213 217 218 216 212 205 207 211 212 210 217 220 218 220 224 215 207 206 207 208 210 210 211 211 208 207 206 201 198 198 201
207 206 204 207 202 199 202 199 203 204 205 207 205 210 223 203 203 204 205 210 216 221 219 223 219 220 223 220 213 207 206 208 209 210 211 216 214 213 210 209 208 206 205
207 205 211 203 183 193 192 196 202 201 201 197 193 199 211 217 220 215 225 220 214 220 223 220 226 224 222 221 220 217 211 212 210 208 211 211 215 216 213 216 214 213 210
203 205 206 210 208 201 198 207 208 201 198 191 186 164 200 212 225 235 228 224 220 224 225 221 224 225 226 218 220 221 215 212 212 212 213 214 214 214 218 217 220 222 217
196 199 204 205 205 201 204 209 207 204 205 201 200 166 161 216 185 223 223 224 225 228 230 231 228 229 228 227 228 224 222 215 217 217 216 220 218 216 220 220 222 221 221
196 196 202 204 204 203 202 206 209 209 206 199 203 211 221 251 242 123 203 216 222 220 228 228 232 234 232 226 229 229 225 221 219 219 219 224 223 221 219 221 221 222 222
186 190 198 202 205 204 204 207 209 207 210 208 201 206 225 252 262 228 183 189 210 218 221 223 224 233 231 231 225 235 231 227 225 221 220 225 226 225 224 222 222 220 224
176 187 194 199 203 206 206 208 209 213 214 218 212 210 205 215 229 220 208 206 196 215 220 227 224 226 230 230 231 230 238 230 230 226 223 224 226 227 226 226 225 221 221
171 178 189 193 198 207 208 209 209 215 215 220 221 211 216 226 230 227 221 210 212 223 219 225 222 226 229 233 233 237 235 237 230 228 227 226 226 227 229 227 228 227 224
163 170 183 194 200 204 210 214 211 216 214 222 223 229 226 236 240 236 232 209 223 207 239 236 221 226 228 231 239 242 239 235 235 231 231 230 228 228 229 229 229 228 228
103 160 171 176 196 208 215 216 213 215 213 214 226 230 231 235 247 245 240 238 198 207 240 243 216 225 224 231 236 242 238 238 238 238 232 233 229 228 230 231 230 230 229
82 69 93 203 209 212 201 215 219 214 213 221 227 223 224 228 257 253 244 233 233 224 241 247 245 215 228 224 234 244 251 249 254 246 236 235 231 229 231 231 230 230 230
58 56 51 58 61 203 237 239 227 220 218 216 225 229 235 228 206 255 260 262 244 237 240 267 257 246 220 231 240 247 250 252 252 251 244 237 233 231 231 230 230 230 231
60 49 53 50 46 47 41 28 302 248 231 231 237 241 235 230 238 240 228 223 230 232 236 247 256 245 236 240 250 250 256 251 245 249 250 246 241 231 234 232 232 232 233
64 61 54 49 40 34 28 18 12 343 338 338 258 260 253 257 251 246 237 242 238 244 234 245 248 244 247 241 234 244 246 248 252 252 252 254 245 235 230 233 234 234 234
57 57 55 48 41 37 31 24 21 14 1 345 323 324 341 324 287 256 247 240 240 234 230 236 238 238 234 239 233 240 237 239 236 238 242 241 242 238 229 231 235 235 235
57 50 50 48 43 41 37 36 35 27 20 9 360 353 339 326 335 329 314 272 247 245 239 229 240 219 203 209 226 229 231 235 228 235 236 236 233 226 229 232 234 232 233
54 56 51 49 43 38 41 42 45 44 37 30 20 13 3 351 339 336 338 322 272 286 229 210 234 226 222 226 227 220 222 191 219 224 220 217 219 218 219 221 224 227 232
49 51 51 47 44 38 45 42 46 46 43 38 32 24 18 11 2 352 348 338 326 342 313 259 281 251 248 231 232 224 220 211 219 214 209 195 208 209 206 213 215 225 232
50 47 47 44 42 36 34 45 39 37 38 38 36 28 23 16 12 11 4 4 355 2 6 352 314 295 292 265 246 229 229 222 216 210 204 161 194 187 206 206 212 213 218
43 45 46 43 41 35 31 32 38 35 31 29 28 28 25 21 17 24 26 26 18 22 15 3 6 354 333 327 303 253 243 183 184 188 195 182 174 153 155 163 173 179 187
41 44 46 42 39 35 29 30 30 30 28 26 25 22 22 24 26 28 36 35 35 14 18 16 24 28 18 3 355 345 276 267 169 155 202 174 160 157 127 157 164 174 165